Time,TemperatureF,DewpointF,PressureIn,WindDirection,WindDirectionDegrees,WindSpeedMPH,WindSpeedGustMPH,Humidity,HourlyPrecipIn,Conditions,Clouds,dailyrainin,SoftwareType,DateUTC
2013-06-08 00:03:00,57.4,46.2,30.12,SSW,206,3.0,5.0,66,0.00,,SKC,0.00,VWS V12.07,2013-06-08 07:03:00,
2013-06-08 00:12:00,57.6,45.9,30.14,SSW,206,4.0,5.0,65,0.00,,SKC,0.00,VWS V12.07,2013-06-08 07:12:00,
2013-06-08 00:22:00,57.8,45.7,30.12,SSW,206,4.0,6.0,64,0.00,,SKC,0.00,VWS V12.07,2013-06-08 07:22:00,
2013-06-08 00:32:00,57.9,45.8,30.12,SSW,206,5.0,7.0,64,0.00,,SKC,0.00,VWS V12.07,2013-06-08 07:32:00,
2013-06-08 00:42:00,57.8,45.7,30.12,SSW,206,4.0,7.0,64,0.00,,SKC,0.00,VWS V12.07,2013-06-08 07:42:00,
2013-06-08 00:52:00,57.4,45.8,30.12,SSW,206,2.0,9.0,65,0.00,,SKC,0.00,VWS V12.07,2013-06-08 07:52:00,
2013-06-08 01:02:00,56.5,45.3,30.13,SSW,206,4.0,7.0,66,0.00,,SKC,0.00,VWS V12.07,2013-06-08 08:02:00,
2013-06-08 01:12:00,55.7,44.9,30.14,SSW,206,2.0,7.0,67,0.00,,SKC,0.00,VWS V12.07,2013-06-08 08:12:00,
2013-06-08 01:22:00,53.4,43.1,30.13,SSW,206,0.0,7.0,68,0.00,,SKC,0.00,VWS V12.07,2013-06-08 08:22:00,
2013-06-08 01:32:00,52.3,43.2,30.14,SSW,206,0.0,0.0,71,0.00,,SKC,0.00,VWS V12.07,2013-06-08 08:32:00,
2013-06-08 01:42:00,52.1,43.7,30.13,SSW,206,4.0,5.0,73,0.00,,SKC,0.00,VWS V12.07,2013-06-08 08:42:00,
2013-06-08 01:52:00,52.2,44.2,30.13,SSW,206,7.0,8.0,74,0.00,,SKC,0.00,VWS V12.07,2013-06-08 08:52:00,
2013-06-08 02:02:00,52.9,44.1,30.12,SSW,206,6.0,6.0,72,0.00,,SKC,0.00,VWS V12.07,2013-06-08 09:02:00,
2013-06-08 02:12:00,52.8,43.7,30.11,SSW,206,5.0,8.0,71,0.00,,SKC,0.00,VWS V12.07,2013-06-08 09:12:00,
2013-06-08 02:22:00,52.2,43.8,30.12,SSW,206,1.0,8.0,73,0.00,,SKC,0.00,VWS V12.07,2013-06-08 09:22:00,
2013-06-08 02:32:00,51.9,43.2,30.12,SSW,206,7.0,10.0,72,0.00,,SKC,0.00,VWS V12.07,2013-06-08 09:32:00,
2013-06-08 02:42:00,51.3,43.3,30.11,SSW,206,6.0,10.0,74,0.00,,SKC,0.00,VWS V12.07,2013-06-08 09:42:00,
2013-06-08 02:52:00,52.5,44.5,30.12,SW,214,5.0,11.0,74,0.00,,SKC,0.00,VWS V12.07,2013-06-08 09:52:00,
2013-06-08 03:02:00,52.6,43.8,30.13,SW,214,7.0,7.0,72,0.00,,SKC,0.00,VWS V12.07,2013-06-08 10:02:00,
2013-06-08 03:12:00,51.5,43.8,30.12,SW,214,3.0,8.0,75,0.00,,SKC,0.00,VWS V12.07,2013-06-08 10:12:00,
2013-06-08 03:22:00,50.6,43.3,30.12,SW,214,7.0,9.0,76,0.00,,SKC,0.00,VWS V12.07,2013-06-08 10:22:00,
2013-06-08 03:32:00,51.2,44.2,30.11,SW,214,7.0,7.0,77,0.00,,SKC,0.00,VWS V12.07,2013-06-08 10:32:00,
2013-06-08 03:43:00,51.3,44.7,30.11,SW,215,6.0,10.0,78,0.00,,SKC,0.00,VWS V12.07,2013-06-08 10:43:00,
2013-06-08 03:52:00,52.2,44.9,30.11,SW,215,7.0,10.0,76,0.00,,SKC,0.00,VWS V12.07,2013-06-08 10:52:00,
2013-06-08 04:02:00,50.0,42.4,30.11,SW,215,4.0,8.0,75,0.00,,SKC,0.00,VWS V12.07,2013-06-08 11:02:00,
2013-06-08 04:13:00,49.6,43.4,30.11,SW,215,6.0,8.0,79,0.00,,SKC,0.00,VWS V12.07,2013-06-08 11:13:00,
2013-06-08 04:22:00,49.7,43.5,30.11,SW,221,7.0,9.0,79,0.00,,SKC,0.00,VWS V12.07,2013-06-08 11:22:00,
2013-06-08 04:32:00,49.6,43.7,30.11,SW,221,5.0,7.0,80,0.00,,SKC,0.00,VWS V12.07,2013-06-08 11:32:00,
2013-06-08 04:42:00,49.7,44.1,30.11,SW,221,5.0,7.0,81,0.00,,SKC,0.00,VWS V12.07,2013-06-08 11:42:00,
2013-06-08 04:52:00,49.8,44.2,30.11,SW,221,7.0,7.0,81,0.00,,SKC,0.00,VWS V12.07,2013-06-08 11:52:00,
2013-06-08 05:02:00,50.0,44.4,30.11,SW,222,5.0,8.0,81,0.00,,SKC,0.00,VWS V12.07,2013-06-08 12:02:00,
2013-06-08 05:12:00,49.7,44.1,30.12,SW,222,5.0,8.0,81,0.00,,SKC,0.00,VWS V12.07,2013-06-08 12:12:00,
2013-06-08 05:22:00,49.7,44.1,30.11,SW,225,5.0,10.0,81,0.00,,SKC,0.00,VWS V12.07,2013-06-08 12:22:00,
2013-06-08 05:32:00,49.8,44.2,30.12,SW,226,4.0,10.0,81,0.00,,SKC,0.00,VWS V12.07,2013-06-08 12:32:00,
2013-06-08 05:42:00,49.7,44.1,30.11,SW,224,3.0,10.0,81,0.00,,SKC,0.00,VWS V12.07,2013-06-08 12:42:00,
2013-06-08 05:52:00,49.7,44.1,30.12,SW,225,5.0,12.0,81,0.00,,SKC,0.00,VWS V12.07,2013-06-08 12:52:00,
2013-06-08 06:02:00,49.8,43.9,30.12,SW,215,9.0,14.0,80,0.00,,SKC,0.00,VWS V12.07,2013-06-08 13:02:00,
2013-06-08 06:12:00,50.0,44.1,30.13,SSW,205,8.0,14.0,80,0.00,,SKC,0.00,VWS V12.07,2013-06-08 13:12:00,
2013-06-08 06:22:00,50.3,44.4,30.12,SW,222,6.0,14.0,80,0.00,,SKC,0.00,VWS V12.07,2013-06-08 13:22:00,
2013-06-08 06:32:00,50.7,44.8,30.11,SW,228,7.0,12.0,80,0.00,,SKC,0.00,VWS V12.07,2013-06-08 13:32:00,
2013-06-08 06:42:00,51.5,45.5,30.13,SW,215,10.0,15.0,80,0.00,,SKC,0.00,VWS V12.07,2013-06-08 13:42:00,
2013-06-08 06:52:00,52.2,46.2,30.13,SSW,209,8.0,15.0,80,0.00,,SKC,0.00,VWS V12.07,2013-06-08 13:52:00,
2013-06-08 07:02:00,53.1,46.4,30.14,SW,215,9.0,14.0,78,0.00,,SKC,0.00,VWS V12.07,2013-06-08 14:02:00,
2013-06-08 07:12:00,54.1,47.1,30.12,SSW,205,7.0,14.0,77,0.00,,SKC,0.00,VWS V12.07,2013-06-08 14:12:00,
2013-06-08 07:22:00,55.0,47.2,30.12,SSW,213,3.0,14.0,75,0.00,,SKC,0.00,VWS V12.07,2013-06-08 14:22:00,
2013-06-08 07:32:00,56.0,47.8,30.13,SW,219,6.0,10.0,74,0.00,,SKC,0.00,VWS V12.07,2013-06-08 14:32:00,
2013-06-08 07:42:00,56.9,48.0,30.13,SSW,202,7.0,13.0,72,0.00,,SKC,0.00,VWS V12.07,2013-06-08 14:42:00,
2013-06-08 07:52:00,57.7,47.6,30.13,SSW,199,10.0,15.0,69,0.00,,SKC,0.00,VWS V12.07,2013-06-08 14:52:00,
2013-06-08 08:02:00,58.4,47.9,30.11,SSW,202,7.0,14.0,68,0.00,,SKC,0.00,VWS V12.07,2013-06-08 15:02:00,
2013-06-08 08:13:00,59.6,48.2,30.11,SSW,198,6.0,14.0,66,0.00,,SKC,0.00,VWS V12.07,2013-06-08 15:13:00,
2013-06-08 08:23:00,60.6,48.8,30.11,SW,216,6.0,14.0,65,0.00,,SKC,0.00,VWS V12.07,2013-06-08 15:23:00,
2013-06-08 08:33:00,61.5,49.2,30.11,SW,221,2.0,6.0,64,0.00,,SKC,0.00,VWS V12.07,2013-06-08 15:33:00,
2013-06-08 08:42:00,63.1,49.5,30.11,SSW,210,6.0,9.0,61,0.00,,SKC,0.00,VWS V12.07,2013-06-08 15:42:00,
2013-06-08 08:52:00,63.7,47.7,30.13,SSW,195,6.0,11.0,56,0.00,,SKC,0.00,VWS V12.07,2013-06-08 15:52:00,
2013-06-08 09:02:00,64.5,47.5,30.12,SSW,205,4.0,8.0,54,0.00,,SKC,0.00,VWS V12.07,2013-06-08 16:02:00,
2013-06-08 09:12:00,65.5,47.4,30.12,SSW,205,6.0,9.0,52,0.00,,SKC,0.00,VWS V12.07,2013-06-08 16:12:00,
2013-06-08 09:22:00,66.3,46.0,30.12,SSW,204,1.0,9.0,48,0.00,,SKC,0.00,VWS V12.07,2013-06-08 16:22:00,
2013-06-08 09:32:00,67.4,40.2,30.13,SSW,204,0.0,5.0,37,0.00,,SKC,0.00,VWS V12.07,2013-06-08 16:32:00,
2013-06-08 09:42:00,67.8,35.3,30.12,SSW,203,1.0,7.0,30,0.00,,SKC,0.00,VWS V12.07,2013-06-08 16:42:00,
2013-06-08 09:52:00,69.2,35.6,30.12,SSE,165,1.0,8.0,29,0.00,,SKC,0.00,VWS V12.07,2013-06-08 16:52:00,
2013-06-08 10:02:00,71.0,35.4,30.13,SSE,164,0.0,3.0,27,0.00,,SKC,0.00,VWS V12.07,2013-06-08 17:02:00,
2013-06-08 10:12:00,70.9,35.3,30.11,SSE,164,4.0,5.0,27,0.00,,SKC,0.00,VWS V12.07,2013-06-08 17:12:00,
2013-06-08 10:22:00,69.9,32.5,30.11,SW,218,3.0,7.0,25,0.00,,SKC,0.00,VWS V12.07,2013-06-08 17:22:00,
2013-06-08 10:32:00,70.1,33.7,30.11,SW,220,2.0,5.0,26,0.00,,SKC,0.00,VWS V12.07,2013-06-08 17:32:00,
2013-06-08 10:42:00,72.1,35.4,30.12,SSW,211,4.0,7.0,26,0.00,,SKC,0.00,VWS V12.07,2013-06-08 17:42:00,
2013-06-08 10:52:00,72.5,33.7,30.12,East,98,5.0,9.0,24,0.00,,SKC,0.00,VWS V12.07,2013-06-08 17:52:00,
2013-06-08 11:02:00,72.4,32.5,30.11,ESE,102,0.0,5.0,23,0.00,,SKC,0.00,VWS V12.07,2013-06-08 18:02:00,
2013-06-08 11:12:00,74.0,31.6,30.11,ESE,111,4.0,7.0,21,0.00,,SKC,0.00,VWS V12.07,2013-06-08 18:12:00,
2013-06-08 11:22:00,74.2,34.1,30.11,NNE,31,1.0,11.0,23,0.00,,SKC,0.00,VWS V12.07,2013-06-08 18:22:00,
2013-06-08 11:32:00,74.4,32.0,30.11,NE,51,0.0,8.0,21,0.00,,SKC,0.00,VWS V12.07,2013-06-08 18:32:00,
2013-06-08 11:42:00,74.4,33.1,30.12,NE,41,5.0,10.0,22,0.00,,SKC,0.00,VWS V12.07,2013-06-08 18:42:00,
2013-06-08 11:52:00,74.3,29.4,30.10,NNE,15,2.0,12.0,19,0.00,,SKC,0.00,VWS V12.07,2013-06-08 18:52:00,
2013-06-08 12:02:00,75.3,28.9,30.10,East,86,0.0,9.0,18,0.00,,SKC,0.00,VWS V12.07,2013-06-08 19:02:00,
2013-06-08 12:12:00,76.1,29.6,30.10,ESE,105,11.0,12.0,18,0.00,,SKC,0.00,VWS V12.07,2013-06-08 19:12:00,
2013-06-08 12:22:00,75.7,27.8,30.10,SE,124,8.0,12.0,17,0.00,,SKC,0.00,VWS V12.07,2013-06-08 19:22:00,
2013-06-08 12:32:00,76.6,27.1,30.10,ESE,113,4.0,10.0,16,0.00,,SKC,0.00,VWS V12.07,2013-06-08 19:32:00,
2013-06-08 12:42:00,77.2,27.6,30.09,ESE,106,7.0,10.0,16,0.00,,SKC,0.00,VWS V12.07,2013-06-08 19:42:00,
2013-06-08 12:52:00,77.0,25.9,30.09,NE,34,7.0,12.0,15,0.00,,SKC,0.00,VWS V12.07,2013-06-08 19:52:00,
2013-06-08 13:02:00,77.3,29.1,30.10,North,355,4.0,7.0,17,0.00,,SKC,0.00,VWS V12.07,2013-06-08 20:02:00,
2013-06-08 13:12:00,77.9,31.0,30.09,East,88,8.0,11.0,18,0.00,,SKC,0.00,VWS V12.07,2013-06-08 20:12:00,
2013-06-08 13:22:00,78.4,30.0,30.09,East,100,9.0,11.0,17,0.00,,SKC,0.00,VWS V12.07,2013-06-08 20:22:00,
2013-06-08 13:32:00,78.3,29.9,30.09,NNE,29,5.0,7.0,17,0.00,,SKC,0.00,VWS V12.07,2013-06-08 20:32:00,
2013-06-08 13:42:00,78.7,30.3,30.09,SE,130,6.0,14.0,17,0.00,,SKC,0.00,VWS V12.07,2013-06-08 20:42:00,
2013-06-08 13:52:00,79.3,30.8,30.08,NNW,348,9.0,14.0,17,0.00,,SKC,0.00,VWS V12.07,2013-06-08 20:52:00,
2013-06-08 14:02:00,78.9,30.4,30.09,North,0,4.0,7.0,17,0.00,,SKC,0.00,VWS V12.07,2013-06-08 21:02:00,
2013-06-08 14:13:00,79.7,31.1,30.08,NW,318,11.0,14.0,17,0.00,,SKC,0.00,VWS V12.07,2013-06-08 21:13:00,
2013-06-08 14:22:00,79.1,30.6,30.08,NNE,22,3.0,17.0,17,0.00,,SKC,0.00,VWS V12.07,2013-06-08 21:22:00,
2013-06-08 14:32:00,79.8,31.1,30.07,NE,40,7.0,13.0,17,0.00,,SKC,0.00,VWS V12.07,2013-06-08 21:32:00,
2013-06-08 14:42:00,80.8,32.0,30.07,NNW,334,5.0,13.0,17,0.00,,SKC,0.00,VWS V12.07,2013-06-08 21:42:00,
2013-06-08 14:52:00,81.4,33.9,30.08,North,10,13.0,15.0,18,0.00,,SKC,0.00,VWS V12.07,2013-06-08 21:52:00,
2013-06-08 15:02:00,80.6,33.2,30.07,ESE,107,7.0,16.0,18,0.00,,SKC,0.00,VWS V12.07,2013-06-08 22:02:00,
2013-06-08 15:12:00,81.1,35.0,30.07,North,11,6.0,19.0,19,0.00,,SKC,0.00,VWS V12.07,2013-06-08 22:12:00,
2013-06-08 15:22:00,81.3,36.4,30.06,North,1,10.0,19.0,20,0.00,,SKC,0.00,VWS V12.07,2013-06-08 22:22:00,
2013-06-08 15:32:00,82.1,38.3,30.07,North,354,17.0,23.0,21,0.00,,SKC,0.00,VWS V12.07,2013-06-08 22:32:00,
2013-06-08 15:42:00,81.6,37.9,30.06,NE,40,11.0,23.0,21,0.00,,SKC,0.00,VWS V12.07,2013-06-08 22:42:00,
2013-06-08 15:52:00,81.3,37.7,30.07,NNE,30,18.0,23.0,21,0.00,,SKC,0.00,VWS V12.07,2013-06-08 22:52:00,
2013-06-08 16:02:00,81.5,40.2,30.08,North,5,16.0,20.0,23,0.00,,SKC,0.00,VWS V12.07,2013-06-08 23:02:00,
2013-06-08 16:12:00,81.3,41.1,30.07,NNW,336,16.0,21.0,24,0.00,,SKC,0.00,VWS V12.07,2013-06-08 23:12:00,
2013-06-08 16:22:00,81.2,41.0,30.06,NNW,331,7.0,23.0,24,0.00,,SKC,0.00,VWS V12.07,2013-06-08 23:22:00,
2013-06-08 16:32:00,81.5,41.3,30.07,North,358,11.0,14.0,24,0.00,,SKC,0.00,VWS V12.07,2013-06-08 23:32:00,
2013-06-08 16:42:00,81.5,41.3,30.05,North,356,12.0,21.0,24,0.00,,SKC,0.00,VWS V12.07,2013-06-08 23:42:00,
2013-06-08 16:52:00,81.2,41.0,30.06,North,355,14.0,22.0,24,0.00,,SKC,0.00,VWS V12.07,2013-06-08 23:52:00,
2013-06-08 17:02:00,80.9,40.8,30.06,NNW,330,18.0,21.0,24,0.00,,SKC,0.00,VWS V12.07,2013-06-09 00:02:00,
2013-06-08 17:12:00,80.6,40.5,30.06,NNE,18,12.0,31.0,24,0.00,,SKC,0.00,VWS V12.07,2013-06-09 00:12:00,
2013-06-08 17:22:00,80.8,42.8,30.07,NNW,334,16.0,31.0,26,0.00,,SKC,0.00,VWS V12.07,2013-06-09 00:22:00,
2013-06-08 17:32:00,80.6,43.6,30.06,North,352,8.0,18.0,27,0.00,,SKC,0.00,VWS V12.07,2013-06-09 00:32:00,
2013-06-08 17:42:00,80.4,43.4,30.06,NNE,12,15.0,22.0,27,0.00,,SKC,0.00,VWS V12.07,2013-06-09 00:42:00,
2013-06-08 17:52:00,79.7,43.8,30.07,North,349,18.0,24.0,28,0.00,,SKC,0.00,VWS V12.07,2013-06-09 00:52:00,
2013-06-08 18:02:00,79.2,45.1,30.07,NNE,15,13.0,25.0,30,0.00,,SKC,0.00,VWS V12.07,2013-06-09 01:02:00,
2013-06-08 18:12:00,79.0,45.0,30.05,NNW,343,18.0,27.0,30,0.00,,SKC,0.00,VWS V12.07,2013-06-09 01:12:00,
2013-06-08 18:22:00,78.9,44.9,30.06,North,354,5.0,27.0,30,0.00,,SKC,0.00,VWS V12.07,2013-06-09 01:22:00,
2013-06-08 18:32:00,78.4,44.4,30.06,North,10,7.0,22.0,30,0.00,,SKC,0.00,VWS V12.07,2013-06-09 01:32:00,
2013-06-08 18:42:00,78.6,45.5,30.06,NNW,345,15.0,27.0,31,0.00,,SKC,0.00,VWS V12.07,2013-06-09 01:42:00,
2013-06-08 18:52:00,78.0,45.0,30.07,North,355,6.0,27.0,31,0.00,,SKC,0.00,VWS V12.07,2013-06-09 01:52:00,
2013-06-08 19:02:00,77.6,43.7,30.07,North,352,21.0,29.0,30,0.00,,SKC,0.00,VWS V12.07,2013-06-09 02:02:00,
2013-06-08 19:12:00,77.5,44.5,30.07,NNW,341,16.0,29.0,31,0.00,,SKC,0.00,VWS V12.07,2013-06-09 02:12:00,
2013-06-08 19:22:00,76.9,44.8,30.07,North,355,8.0,29.0,32,0.00,,SKC,0.00,VWS V12.07,2013-06-09 02:22:00,
2013-06-08 19:32:00,76.6,43.7,30.06,NNE,15,21.0,23.0,31,0.00,,SKC,0.00,VWS V12.07,2013-06-09 02:32:00,
2013-06-08 19:42:00,76.1,44.1,30.07,North,0,11.0,24.0,32,0.00,,SKC,0.00,VWS V12.07,2013-06-09 02:42:00,
2013-06-08 19:52:00,75.7,44.6,30.07,NNE,25,10.0,24.0,33,0.00,,SKC,0.00,VWS V12.07,2013-06-09 02:52:00,
2013-06-08 20:02:00,75.2,44.2,30.08,NNE,14,12.0,20.0,33,0.00,,SKC,0.00,VWS V12.07,2013-06-09 03:02:00,
2013-06-08 20:12:00,74.6,43.6,30.06,North,8,4.0,20.0,33,0.00,,SKC,0.00,VWS V12.07,2013-06-09 03:12:00,
2013-06-08 20:22:00,74.1,43.2,30.07,NNE,21,6.0,20.0,33,0.00,,SKC,0.00,VWS V12.07,2013-06-09 03:22:00,
2013-06-08 20:32:00,73.8,42.9,30.08,North,9,12.0,17.0,33,0.00,,SKC,0.00,VWS V12.07,2013-06-09 03:32:00,
2013-06-08 20:43:00,73.1,43.1,30.08,NNE,19,4.0,17.0,34,0.00,,SKC,0.00,VWS V12.07,2013-06-09 03:43:00,
2013-06-08 20:52:00,72.8,42.8,30.07,NE,34,5.0,17.0,34,0.00,,SKC,0.00,VWS V12.07,2013-06-09 03:52:00,
2013-06-08 21:02:00,72.3,43.1,30.07,NNE,33,8.0,10.0,35,0.00,,SKC,0.00,VWS V12.07,2013-06-09 04:02:00,
2013-06-08 21:12:00,71.8,42.7,30.07,NNE,23,7.0,12.0,35,0.00,,SKC,0.00,VWS V12.07,2013-06-09 04:12:00,
2013-06-08 21:22:00,71.1,43.5,30.08,NNE,18,7.0,12.0,37,0.00,,SKC,0.00,VWS V12.07,2013-06-09 04:22:00,
2013-06-08 21:32:00,70.5,43.0,30.08,NNE,20,6.0,10.0,37,0.00,,SKC,0.00,VWS V12.07,2013-06-09 04:32:00,
2013-06-08 21:42:00,70.1,42.7,30.09,NNE,12,3.0,10.0,37,0.00,,SKC,0.00,VWS V12.07,2013-06-09 04:42:00,
2013-06-08 21:52:00,69.6,42.9,30.08,NNE,13,5.0,10.0,38,0.00,,SKC,0.00,VWS V12.07,2013-06-09 04:52:00,
2013-06-08 22:02:00,69.1,41.8,30.09,NNE,23,7.0,10.0,37,0.00,,SKC,0.00,VWS V12.07,2013-06-09 05:02:00,
2013-06-08 22:12:00,68.3,42.4,30.09,NNE,31,6.0,10.0,39,0.00,,SKC,0.00,VWS V12.07,2013-06-09 05:12:00,
2013-06-08 22:22:00,67.8,42.0,30.09,NNE,31,5.0,10.0,39,0.00,,SKC,0.00,VWS V12.07,2013-06-09 05:22:00,
2013-06-08 22:32:00,67.3,42.2,30.08,NNE,31,0.0,3.0,40,0.00,,SKC,0.00,VWS V12.07,2013-06-09 05:32:00,
2013-06-08 22:42:00,66.6,42.8,30.09,NNE,31,3.0,4.0,42,0.00,,SKC,0.00,VWS V12.07,2013-06-09 05:42:00,
2013-06-08 22:52:00,65.7,43.2,30.09,NNE,31,1.0,4.0,44,0.00,,SKC,0.00,VWS V12.07,2013-06-09 05:52:00,
2013-06-08 23:03:00,65.0,43.2,30.08,NNE,31,4.0,5.0,45,0.00,,SKC,0.00,VWS V12.07,2013-06-09 06:03:00,
2013-06-08 23:12:00,64.4,43.2,30.09,NNE,31,4.0,5.0,46,0.00,,SKC,0.00,VWS V12.07,2013-06-09 06:12:00,
2013-06-08 23:22:00,63.4,42.8,30.08,NNE,31,3.0,5.0,47,0.00,,SKC,0.00,VWS V12.07,2013-06-09 06:22:00,
2013-06-08 23:32:00,61.9,43.6,30.07,NNE,28,2.0,5.0,51,0.00,,SKC,0.00,VWS V12.07,2013-06-09 06:32:00,
2013-06-08 23:42:00,61.8,43.5,30.08,NNE,20,4.0,6.0,51,0.00,,SKC,0.00,VWS V12.07,2013-06-09 06:42:00,
2013-06-08 23:52:00,62.1,42.7,30.08,NNE,20,3.0,6.0,49,0.00,,SKC,0.00,VWS V12.07,2013-06-09 06:52:00,